Weather Roundup
Issued by NWS

Home | Current Version | Previous Version | Graphics & Text | Print | Product List | Glossary Off
Versions: 1 2 3 4 5 6 7 8 9 10 11 12 13 14 15 16 17 18 19 20 21 22 23 24 25 26 27 28 29 30 31 32 33 34 35 36 37 38 39 40 41 42 43 44 45 46 47 48 49 50

000
NZUS93 KARX 031959
HRRWXR

CURRENT HOURLY OBSERVATIONS ACROSS
MUCH OF THE UPPER MISSISSIPPI VALLEY
NATIONAL WEATHER SERVICE LA CROSSE WI
300 PM CDT THU SEP 03 2015


...SOUTHEAST MINNESOTA...


CITY           SKY/WX    TMP DP  RH WIND       PRES   REMARKS
ROCHESTER      MOSUNNY   87  74  64 SE7       29.91F HAZE    HX  95
ROCHESTER/MAYO FAIR      87  72  59 SE6       29.90F HX  93
WINONA         PTSUNNY   86  73  66 E5        29.90S HX  93
AUSTIN         SUNNY     88  73  62 SE10      29.89F HX  96
ALBERT LEA     SUNNY     88  73  62 SE9       29.87F HX  96
DODGE CENTER   SUNNY     86  73  66 E8        29.90F HX  93
PRESTON        SUNNY     86  71  61 SE8       29.91F HX  92
OWATONNA       SUNNY     88  75  66 E7        29.88S HX  97
FARIBAULT      SUNNY     86  75  70 E8        29.88F HX  95
$$

...ELSEWHERE IN MINNESOTA...


CITY           SKY/WX    TMP DP  RH WIND       PRES   REMARKS
MINNEAPOLIS    MOSUNNY   83  72  69 E14       29.88F
INTNL FALLS    SUNNY     83  64  52 SE12      29.91S
DULUTH         MOSUNNY   71  65  81 E9        29.98S
RED WING       MOSUNNY   82  72  69 SE12      29.89F
REDWOOD FALLS  SUNNY     88  74  63 SE12      29.83F HX  96
MANKATO        SUNNY     88  73  62 SE9       29.86F HX  96
WORTHINGTON    SUNNY     86  72  62 SE14      29.85S HX  92
FAIRMONT       SUNNY     88  70  55 SE12      29.85F HX  92
$$

...SOUTHWEST WISCONSIN...


CITY           SKY/WX    TMP DP  RH WIND       PRES   REMARKS
LA CROSSE      SUNNY     88  73  61 E8        29.89F HX  95
PRAIRIE DU CHI SUNNY     89  69  53 CALM      29.88F HX  93
BOSCOBEL       SUNNY     92  71  50 CALM      29.89F HX  98
LONE ROCK      NOT AVBL
PLATTEVILLE    SUNNY     87  74  65 CALM      29.92F HX  95
FORT MC COY    SUNNY     85  67  55 E5        29.93F
VIROQUA          N/A     86  71  59 CALM      29.93F HX  91
WIS DELLS      PTSUNNY   81  69  65 NE8       29.93S
$$

...ELSEWHERE IN WISCONSIN...


CITY           SKY/WX    TMP DP  RH WIND       PRES   REMARKS
MILWAUKEE      PTSUNNY   78  70  76 NE10      29.91S
MADISON        PTSUNNY   85  73  67 N9        29.90F HX  91
GREEN BAY      CLOUDY    76  67  73 VRB3      29.94S
EAU CLAIRE     NOT AVBL
BLACK RVR FLS  FAIR      85  65  52 E6        29.92F
MEDFORD        CLOUDY    74  66  77 E6        29.99S
WAUSAU         PTSUNNY   77  65  66 E8        29.96F
WIS RAPIDS     MOSUNNY   80  65  59 E6        29.96F
MARSHFIELD     CLOUDY    76  64  66 VRB5      29.97F
RICE LAKE      MOSUNNY   80  67  63 S6        29.96F
$$

...NORTHEAST IOWA...


CITY           SKY/WX    TMP DP  RH WIND       PRES   REMARKS
DECORAH        SUNNY     86  73  66 VRB6      29.90S HX  93
MASON CITY     SUNNY     88  74  63 S9        29.89F HX  96
CHARLES CITY   SUNNY     88  77  70 VRB7      29.89F HX 100
OELWEIN        SUNNY     88  73  62 SW7       29.91F HX  96
$$

...ELSEWHERE IN IOWA...


CITY           SKY/WX    TMP DP  RH WIND       PRES   REMARKS
DES MOINES     MOSUNNY   90  71  53 S12       29.87F HX  96
IOWA CITY      SUNNY     89  71  55 S8        29.91F HX  95
FORT DODGE     MOSUNNY   88  72  58 S8        29.87S HX  94
$$

...NORTHERN ILLINOIS...


CITY           SKY/WX    TMP DP  RH WIND       PRES   REMARKS
CHICAGO-OHARE  MOSUNNY   89  68  49 SW13G21   29.90F HX  93
CHICAGO-MIDWAY PTSUNNY   93  66  40 SW16G22   29.90F HX  96
MOLINE         MOSUNNY   92  70  48 W9        29.90F HX  97
ROCKFORD       MOSUNNY   88  72  58 SW8       29.92F HX  94
PEORIA         SUNNY     94  66  39 W10       29.92F HX  97
$$

NOTE: "FAIR" INDICATES FEW OR NO CLOUDS BELOW 12,000 FEET WITH NO
SIGNIFICANT WEATHER AND/OR OBSTRUCTIONS TO VISIBILITY. WIND
SPEEDS ARE IN MILES-PER-HOUR.



USA.gov is the U.S. government's official web portal to all federal, state and local government web resources and services.